EW6791 Weather Reports


Display with metric or nautical units.
time (UTC)temp
F
wind
direction
speed
MPH
gust
MPH
rain 1hr
in
rain 24hr
in
rain mn
in
humidity
%
barometer
mb
20260504230055 73 52 2.0 11.0 0.00 0.00 0.00 20 994.5
20260504224607 73 146 3.0 7.0 0.00 0.00 0.00 19 994.7
20260504223051 73 152 2.0 10.0 0.00 0.00 0.00 19 995.1
20260504221548 73 153 3.0 7.0 0.00 0.00 0.00 18 995.3
20260504220048 74 163 2.0 8.0 0.00 0.00 0.00 19 995.3
20260504214547 75 191 3.0 8.0 0.00 0.00 0.00 18 995.3
20260504213107 75 173 3.0 11.0 0.00 0.00 0.00 17 995.4
20260504211545 74 270 4.0 11.0 0.00 0.00 0.00 17 995.4
20260504210044 74 203 3.0 10.0 0.00 0.00 0.00 19 995.6
20260504204545 74 143 1.0 13.0 0.00 0.00 0.00 19 995.5
20260504203047 74 176 3.0 12.0 0.00 0.00 0.00 21 995.7
20260504201540 74 122 4.0 18.0 0.00 0.00 0.00 18 995.7
20260504200039 74 176 4.0 11.0 0.00 0.00 0.00 18 995.7
20260504194547 75 245 5.0 11.0 0.00 0.00 0.00 17 995.8
20260504193042 75 159 6.0 17.0 0.00 0.00 0.00 18 995.9
20260504191532 75 209 6.0 13.0 0.00 0.00 0.00 21 996.1
20260504190031 75 161 4.0 11.0 0.00 0.00 0.00 21 996.0
20260504184529 75 194 6.0 11.0 0.00 0.00 0.00 21 996.2
20260504183027 74 186 3.0 12.0 0.00 0.00 0.00 25 996.4
20260504181524 73 297 7.0 16.0 0.00 0.00 0.00 24 996.4
20260504180022 73 206 3.0 14.0 0.00 0.00 0.00 25 996.7
20260504174520 72 146 4.0 13.0 0.00 0.00 0.00 24 997.1
20260504173031 72 192 6.0 14.0 0.00 0.00 0.00 24 997.2
20260504171521 71 180 4.0 11.0 0.00 0.00 0.00 29 997.4
20260504100104 46 63 0.0 0.0 0.00 0.00 0.00 57 1001.1
20260504090117 47 150 0.0 2.0 0.00 0.00 0.00 57 1001.5
20260504081546 47 171 0.0 2.0 0.00 0.00 0.00 56 1001.6
20260504050020 51 205 2.0 9.0 0.00 0.00 0.00 53 1003.3
20260504044533 52 261 3.0 8.0 0.00 0.00 0.00 52 1003.3
20260504043019 52 180 2.0 6.0 0.00 0.00 0.00 52 1003.4
20260504041512 52 32 1.0 5.0 0.00 0.00 0.00 52 1003.6
20260504040010 52 195 2.0 7.0 0.00 0.00 0.00 52 1003.8
20260504034508 52 173 2.0 6.0 0.00 0.00 0.00 51 1004.0
20260504033010 52 222 2.0 5.0 0.00 0.00 0.00 51 1003.9
20260504031508 53 138 2.0 6.0 0.00 0.00 0.00 49 1004.2
20260504030007 52 181 3.0 6.0 0.00 0.00 0.00 49 1004.2
20260504024514 53 203 2.0 6.0 0.00 0.00 0.00 49 1004.3
20260504023006 53 213 2.0 8.0 0.00 0.00 0.00 48 1004.5
20260504021505 54 174 2.0 6.0 0.00 0.00 0.00 47 1004.5
20260504020012 54 190 2.0 7.0 0.00 0.00 0.00 47 1004.3
20260504014505 54 165 2.0 6.0 0.00 0.00 0.00 48 1004.4
20260504013008 55 186 2.0 5.0 0.00 0.00 0.00 48 1004.4
20260504011503 55 134 1.0 6.0 0.00 0.00 0.00 48 1004.3
20260504010002 55 146 2.0 8.0 0.00 0.00 0.00 46 1004.3
20260504004505 55 197 3.0 8.0 0.00 0.00 0.00 46 1004.2
20260504003001 56 205 3.0 10.0 0.00 0.00 0.00 44 1004.0
20260504001615 56 171 1.0 5.0 0.00 0.00 0.00 44 1003.8
20260504000100 57 168 4.0 10.0 0.00 0.00 0.00 43 1003.7
20260503234558 57 206 4.0 9.0 0.00 0.00 0.00 42 1003.9
20260503233057 57 152 4.0 9.0 0.00 0.00 0.00 43 1004.0
20260503231557 57 281 3.0 14.0 0.00 0.00 0.00 45 1004.1